Location: Buchloe
(48.0161°N, 10.7316°E)
Time: 12:10:17
(UTC+02:00)

ISS - Pass Details

Date: 22 May 2018
Orbit: 402 x 407 km, 51.6° (Epoch: 26 May)

Event Time Altitude Azimuth Distance (km) Brightness Sun altitude
Rises 22:58:41 0° 248° (WSW) 2,312 0.1 -15.1°
Reaches altitude 10° 23:00:45 10° 249° (WSW) 1,454 -0.9 -15.3°
Maximum altitude 23:04:01 85° 335° (NNW) 409 -3.9 -15.6°
Drops below altitude 10° 23:07:17 10° 67° (ENE) 1,458 -1.1 -15.8°
Sets 23:09:22 0° 68° (ENE) 2,319 -0.1 -16.0°
